Regional Weather Roundup
Issued by NWS

Home | Current Version | Previous Version | Text Only | Print | Product List | Glossary On
Versions: 1 2 3 4 5 6 7 8 9 10 11 12 13 14 15 16 17 18 19 20 21 22 23 24 25 26 27 28 29 30 31 32 33 34 35 36 37 38 39 40 41 42 43 44 45 46 47 48 49 50
000
ASUS43 KFSD 291610
RWRSD

WEATHER ROUNDUP FOR SOUTH DAKOTA
NATIONAL WEATHER SERVICE SIOUX FALLS SD
1100 AM CDT MON MAY 29 2017

NOTE: "FAIR" INDICATES FEW OR NO CLOUDS BELOW 12,000 FEET WITH NO
SIGNIFICANT WEATHER AND/OR OBSTRUCTIONS TO VISIBILITY.


SDZ001>005-009-010-012>017-291700-
NORTHWEST AND NORTH CENTRAL SOUTH DAKOTA

CITY           SKY/WX    TMP DP  RH WIND       PRES   REMARKS
BUFFALO          N/A     58  36  43 NW24G35   30.09S
FAITH            N/A     59  38  45 NW23G32   30.11F
MOBRIDGE       PTSUNNY   60  41  49 N20G25    30.02S
$$

SDZ012>016-024>037-041>051-057-063-072>074-291700-
SOUTHWEST AND SOUTH CENTRAL SOUTH DAKOTA

CITY           SKY/WX    TMP DP  RH WIND       PRES   REMARKS
RAPID CTY ARPT SUNNY     61  36  39 N20       30.16F
PIERRE         MOSUNNY   61  40  45 NW21G32   30.07R
CUSTER         SUNNY     55  16  21 N14G24    30.19S
ELLSWORTH AFB  SUNNY     60  35  39 N16G23    30.15F
PHILIP         MOSUNNY   62  38  40 NW18G26   30.12S
PINE RIDGE     SUNNY     59  41  51 NW8       30.17S
SPEARFISH      FAIR      57  30  35 NW17G23   30.19S
WINNER         FAIR      63  42  46 NW22G33   30.09S
$$

SDZ004>011-016>023-039-040-291700-
NORTHEAST SOUTH DAKOTA

CITY           SKY/WX    TMP DP  RH WIND       PRES   REMARKS
ABERDEEN       CLOUDY    58  41  53 NW26G32   29.97R
WATERTOWN      CLOUDY    53  47  79 NW14      29.94R
BROOKINGS      CLOUDY    54  48  80 NW16G23   29.95R
SISSETON         N/A     57  50  77 NW23      29.90S
$$

SDZ017-020-022-023-036>040-048>070-291700-
SOUTHEAST SOUTH DAKOTA

CITY           SKY/WX    TMP DP  RH WIND       PRES   REMARKS
SIOUX FALLS    CLOUDY    59  47  64 NW18G30   29.97S
HURON          CLOUDY    57  44  62 NW21G30   30.00R
CHAMBERLAIN    MOSUNNY   64  43  46 NW23G32   30.06R
MITCHELL       CLOUDY    62  43  49 NW25G31   30.02R
YANKTON        MOSUNNY   64  43  46 NW23G31   30.02
$$

ABBREVIATIONS USED IN REMARKS
   TC - TEMPERATURE IN CELSIUS
  WCI - WIND CHILL INDEX
   HX - HEAT INDEX
  VSB - VISIBILITY




USA.gov is the U.S. government's official web portal to all federal, state and local government web resources and services.